Regional Weather Roundup
Issued by NWS Goodland, KS

Home | Current Version | Previous Version | Graphics & Text | Print | Product List | Glossary On
Versions: 1 2 3 4 5 6 7 8 9 10 11 12 13 14 15 16 17 18 19 20 21 22 23 24 25 26 27 28 29 30 31 32 33 34 35 36 37 38 39 40 41 42 43 44 45 46 47 48 49 50
000
ASUS43 KGLD 041408
RWRGLD

GOODLAND FORECAST AREA HOURLY WEATHER ROUNDUP
NATIONAL WEATHER SERVICE GOODLAND KS
800 AM MDT SAT JUL 04 2015

...OFFICIAL OBSERVATIONS...

CITY           SKY/WX    TMP DP  RH WIND       PRES   REMARKS
GOODLAND KS    SUNNY     70  61  73 S18       30.00R
HILL CITY KS   SUNNY     73  63  70 S7        29.99F
IMPERIAL NEB   MOSUNNY   71  60  68 S15       29.97S
MCCOOK NEB     SUNNY     71  61  70 S9        29.97F
AKRON CO       PTSUNNY   66  61  84 S12       29.99F
BURLINGTON CO  MOSUNNY   66  61  84 S14       30.02S
LIMON CO       SUNNY     63  59  87 SE8       30.06F
$$

...UNOFFICIAL OBSERVATIONS...

CITY           SKY/WX    TMP DP  RH WIND       PRES   REMARKS
COLBY KS       SUNNY     73  64  73 S14       30.01R
GOVE KS          N/A     73  32  22 MISG        N/A
NORTON KS      SUNNY     72  61  68 SE10      29.98S
SHARON SPRINGS   N/A     71  64  78 S16G25      N/A
KIT CARSON CO    N/A     66  60  81 MISG        N/A
YUMA CO          N/A     67  62  85 SW5         N/A
$$


USA.gov is the U.S. government's official web portal to all federal, state and local government web resources and services.